User: anonymous   Login
Location: Ferchesar
(52.6477°N, 12.4298°E)
Time: 13:46:58
(UTC+02:00)
Language:

N. Korean satellite - Orbit

View from above orbital plane
View from above orbital plane
View from above satellite
View from above satellite

Ground track
Ground track

The orbit data is extracted from the following two-line orbital elements,

1 39026U 12072A   21270.93616749  .00006714  00000-0  22354-3 0  9996
2 39026  97.2525 261.3819 0035741  22.0502 338.2267 15.30831435488704
Epoch (UTC): 27 September 2021 22:28:04
Eccentricity: 0.0035741
inclination: 97.2525°
perigee height: 449 km
apogee height: 498 km
right ascension of ascending node: 261.3819°
argument of perigee: 22.0502°
revolutions per day: 15.30831435
mean anomaly at epoch: 338.2267°
orbit number at epoch: 48870

The dashed part of the orbit path shows where the satellite is in the earth's shadow,  

DLR